This is the latest recevied weather packets stored in our database for station/object EA6MW-10. If no packets are shown the sender has not sent any weather packets the latest 10 day(s).
| Time | Temp. | Humidity | Pressure | Rain* | Wind** | Luminosity | Snow |
|---|---|---|---|---|---|---|---|
| 1777947850 | 16.11° C | 81% | 1013 hPa | - | - | - | - |
| 1777946950 | 16.11° C | 79% | 1013.1 hPa | - | - | - | - |
| 1777946049 | 16.67° C | 79% | 1013.1 hPa | - | - | - | - |
| 1777945149 | 17.22° C | 78% | 1013.2 hPa | - | - | - | - |
| 1777944249 | 17.22° C | 79% | 1013.1 hPa | - | - | - | - |
| 1777943348 | 16.67° C | 79% | 1013.2 hPa | - | - | - | - |
| 1777942448 | 17.22° C | 77% | 1013.4 hPa | - | - | - | - |
| 1777941548 | 17.22° C | 77% | 1013.6 hPa | - | - | - | - |
| 1777940647 | 16.67° C | 80% | 1013.9 hPa | - | - | - | - |
| 1777939747 | 16.11° C | 85% | 1014.1 hPa | - | - | - | - |
| 1777938847 | 16.67° C | 84% | 1014.1 hPa | - | - | - | - |
| 1777937947 | 16.67° C | 82% | 1014.2 hPa | - | - | - | - |
| 1777937047 | 16.67° C | 83% | 1014.3 hPa | - | - | - | - |
| 1777936146 | 16.11° C | 83% | 1014.3 hPa | - | - | - | - |
| 1777935246 | 16.11° C | 85% | 1014.2 hPa | - | - | - | - |
| 1777933446 | 16.11° C | 85% | 1014.3 hPa | - | - | - | - |
| 1777932546 | 16.11° C | 85% | 1014.4 hPa | - | - | - | - |
| 1777931645 | 17.22° C | 80% | 1014.4 hPa | - | - | - | - |
| 1777930745 | 16.67° C | 81% | 1014.4 hPa | - | - | - | - |
| 1777929844 | 17.22° C | 79% | 1014.2 hPa | - | - | - | - |
| 1777928944 | 17.22° C | 77% | 1014.3 hPa | - | - | - | - |
| 1777928044 | 17.78° C | 78% | 1014.2 hPa | - | - | - | - |
| 1777927143 | 17.22° C | 79% | 1014 hPa | - | - | - | - |
| 1777926243 | 17.22° C | 80% | 1013.8 hPa | - | - | - | - |
| 1777925343 | 17.22° C | 80% | 1013.6 hPa | - | - | - | - |
* Rain since midnight (hover to see other rain measurements)
** Current wind speed in m/s (hover to see current wind gust speed)